Tracking 30101 objects as of 13-Dec-2024
HD Live streaming from Space Station
objects crossing your sky now

STARLINK-31661

Track STARLINK-31661 now!
10-day predictions
STARLINK-31661 is classified as:


NORAD ID: 59735
Int'l Code: 2024-090F
Perigee: 449.8 km
Apogee: 452.6 km
Inclination: 43.0 °
Period: 93.5 minutes
Semi major axis: 6822 km
RCS: Unknown
Launch date: May 13, 2024
Source: United States (US)
Launch site: AIR FORCE EASTERN TEST RANGE (AFETR)
Your satellite tracking list
Your tracking list is empty




NASA's NSSDC Master Catalog

Two Line Element Set (TLE):
1 59735U 24090F   24348.04648284  .00000944  00000-0  29869-4 0  9996
2 59735  42.9987 222.2427 0001988 270.4972  89.5657 15.40693376 34223
Source of the keplerian elements: AFSPC